Tracking 31027 objects as of 19-Jul-2025
HD Live streaming from Space Station
objects crossing your sky now

THORAD DELTA 1 DEB

Track THORAD DELTA 1 DEB now!
10-day predictions


NORAD ID: 8307
Int'l Code: 1974-089BQ
Perigee: 1,430.0 km
Apogee: 2,171.7 km
Inclination: 101.2 °
Period: 122.5 minutes
Semi major axis: 8171 km
RCS: 0.1335 m2 (medium)
Launch date: November 15, 1974
Source: United States (US)
Launch site: AIR FORCE WESTERN TEST RANGE (AFWTR)

Note: This is SATELLITE DEBRIS
Your satellite tracking list
ONEWEB-0142
Track 1 satellite(s)




NASA's NSSDC Master Catalog

Two Line Element Set (TLE):
1 08307U 74089BQ  25199.24791382  .00000055  00000-0  10973-2 0  9990
2 08307 101.1828 304.4490 0453813 147.3131 245.6115 11.75226704174077
Source of the keplerian elements: AFSPC